ASTRA 5B

Last updated on Sun Jun 21 2026 00:03:06 GMT+0000 (Coordinated Universal Time)

1 39617U 14011B 26171.32539470 .00000132 00000+0 00000+0 0 9997 2 39617 0.0635 312.5910 0002057 113.5023 343.0777 1.00268988 44698
UTC large
Height (km)
Speed (km/s)
/
Latitude / Longitude
Inclination (degrees)
Orbital Period (minutes)
Azimuth
Elevation
Range (km)
Doppler Factor

Next 0 passes for location: London (51.5072 / 0.1276)

No passes found over London.
ASTRA 5B